Time,TemperatureF,DewpointF,PressureIn,WindDirection,WindDirectionDegrees,WindSpeedMPH,WindSpeedGustMPH,Humidity,HourlyPrecipIn,Conditions,Clouds,dailyrainin,SolarRadiationWatts/m^2,SoftwareType,DateUTC
2013-03-07 00:04:00,33.0,28.0,30.15,South,179,0.0,0.0,82,0.00,,,0.00,0,weatherlink.com 1.10,2013-03-07 05:04:00,
2013-03-07 00:19:00,32.9,28.0,30.15,South,191,0.0,0.0,83,0.00,,,0.00,0,weatherlink.com 1.10,2013-03-07 05:19:00,
2013-03-07 00:34:00,32.8,28.0,30.15,SW,231,0.0,0.0,83,0.00,,,0.00,0,weatherlink.com 1.10,2013-03-07 05:34:00,
2013-03-07 00:49:00,32.7,28.0,30.16,SSW,206,0.0,0.0,83,0.00,,,0.00,0,weatherlink.com 1.10,2013-03-07 05:49:00,
2013-03-07 01:04:00,32.6,28.0,30.16,South,178,0.0,0.0,84,0.00,,,0.00,0,weatherlink.com 1.10,2013-03-07 06:04:00,
2013-03-07 01:21:00,32.5,28.0,30.16,South,181,0.0,0.0,84,0.00,,,0.00,0,weatherlink.com 1.10,2013-03-07 06:21:00,
2013-03-07 01:34:00,32.5,28.0,30.17,SSW,203,0.0,0.0,84,0.00,,,0.00,0,weatherlink.com 1.10,2013-03-07 06:34:00,
2013-03-07 01:49:00,32.4,28.0,30.17,SSW,209,0.0,0.0,84,0.00,,,0.00,0,weatherlink.com 1.10,2013-03-07 06:49:00,
2013-03-07 02:04:00,32.3,28.0,30.16,SSE,162,0.0,0.0,84,0.00,,,0.00,0,weatherlink.com 1.10,2013-03-07 07:04:00,
2013-03-07 02:19:00,32.2,28.0,30.16,SSE,163,0.0,0.0,84,0.00,,,0.00,0,weatherlink.com 1.10,2013-03-07 07:19:00,
2013-03-07 02:34:00,32.1,28.0,30.16,SSW,211,0.0,0.0,85,0.00,,,0.00,0,weatherlink.com 1.10,2013-03-07 07:34:00,
2013-03-07 02:49:00,32.0,28.0,30.17,SSW,196,0.0,0.0,85,0.00,,,0.00,0,weatherlink.com 1.10,2013-03-07 07:49:00,
2013-03-07 03:04:00,31.9,28.0,30.17,West,263,0.0,0.0,85,0.00,,,0.00,0,weatherlink.com 1.10,2013-03-07 08:04:00,
2013-03-07 03:19:00,31.8,28.0,30.17,SSE,161,0.0,0.0,84,0.00,,,0.00,0,weatherlink.com 1.10,2013-03-07 08:19:00,
2013-03-07 03:34:00,31.7,27.0,30.17,SSE,159,0.0,0.0,84,0.00,,,0.00,0,weatherlink.com 1.10,2013-03-07 08:34:00,
2013-03-07 03:49:00,31.6,27.0,30.17,SSW,192,0.0,0.0,84,0.00,,,0.00,0,weatherlink.com 1.10,2013-03-07 08:49:00,
2013-03-07 04:19:00,31.4,27.0,30.17,SSE,167,0.0,0.0,84,0.00,,,0.00,0,weatherlink.com 1.10,2013-03-07 09:19:00,
2013-03-07 04:35:00,31.3,27.0,30.17,South,170,0.0,0.0,84,0.00,,,0.00,0,weatherlink.com 1.10,2013-03-07 09:35:00,
2013-03-07 04:50:00,31.2,27.0,30.17,South,180,0.0,0.0,84,0.00,,,0.00,0,weatherlink.com 1.10,2013-03-07 09:50:00,
2013-03-07 05:05:00,31.1,27.0,30.17,SSE,166,0.0,0.0,84,0.00,,,0.00,0,weatherlink.com 1.10,2013-03-07 10:05:00,
2013-03-07 05:20:00,31.0,27.0,30.17,SSW,193,0.0,0.0,84,0.00,,,0.00,0,weatherlink.com 1.10,2013-03-07 10:20:00,
2013-03-07 05:35:00,30.8,27.0,30.17,South,173,0.0,0.0,84,0.00,,,0.00,0,weatherlink.com 1.10,2013-03-07 10:35:00,
2013-03-07 05:50:00,30.6,26.0,30.17,South,184,0.0,0.0,84,0.00,,,0.00,0,weatherlink.com 1.10,2013-03-07 10:50:00,
2013-03-07 06:05:00,30.5,26.0,30.17,SE,132,0.0,0.0,83,0.00,,,0.00,0,weatherlink.com 1.10,2013-03-07 11:05:00,
2013-03-07 06:20:00,30.3,26.0,30.17,SW,225,0.0,0.0,83,0.00,,,0.00,0,weatherlink.com 1.10,2013-03-07 11:20:00,
2013-03-07 06:35:00,30.2,26.0,30.17,SSW,194,0.0,0.0,83,0.00,,,0.00,0,weatherlink.com 1.10,2013-03-07 11:35:00,
2013-03-07 06:50:00,30.1,26.0,30.17,South,190,0.0,0.0,83,0.00,,,0.00,12,weatherlink.com 1.10,2013-03-07 11:50:00,
2013-03-07 07:05:00,30.1,25.0,30.17,SSW,211,0.0,0.0,82,0.00,,,0.00,28,weatherlink.com 1.10,2013-03-07 12:05:00,
2013-03-07 07:20:00,30.2,25.0,30.17,West,277,0.0,0.0,81,0.00,,,0.00,47,weatherlink.com 1.10,2013-03-07 12:20:00,
2013-03-07 07:36:00,30.4,25.0,30.17,SSW,207,0.0,0.0,81,0.00,,,0.00,62,weatherlink.com 1.10,2013-03-07 12:36:00,
2013-03-07 07:50:00,30.6,25.0,30.18,SSW,195,0.0,0.0,80,0.00,,,0.00,76,weatherlink.com 1.10,2013-03-07 12:50:00,
2013-03-07 08:05:00,30.8,25.0,30.18,South,180,0.0,0.0,79,0.00,,,0.00,88,weatherlink.com 1.10,2013-03-07 13:05:00,
2013-03-07 08:20:00,30.9,25.0,30.19,SSE,161,0.0,0.0,78,0.00,,,0.00,111,weatherlink.com 1.10,2013-03-07 13:20:00,
2013-03-07 08:35:00,31.2,25.0,30.19,SW,222,0.0,0.0,79,0.00,,,0.00,128,weatherlink.com 1.10,2013-03-07 13:35:00,
2013-03-07 08:50:00,31.4,25.0,30.20,SSE,162,0.0,0.0,78,0.00,,,0.00,146,weatherlink.com 1.10,2013-03-07 13:50:00,
2013-03-07 09:05:00,31.6,25.0,30.20,SW,230,0.0,0.0,78,0.00,,,0.00,160,weatherlink.com 1.10,2013-03-07 14:05:00,
2013-03-07 09:20:00,31.5,25.0,30.20,SSE,164,0.0,0.0,76,0.00,,,0.00,186,weatherlink.com 1.10,2013-03-07 14:20:00,
2013-03-07 09:35:00,31.9,25.0,30.21,ESE,107,0.0,0.0,76,0.00,,,0.00,199,weatherlink.com 1.10,2013-03-07 14:35:00,
2013-03-07 09:50:00,32.1,25.0,30.21,SSE,164,0.0,0.0,74,0.00,,,0.00,218,weatherlink.com 1.10,2013-03-07 14:50:00,
2013-03-07 10:05:00,32.4,25.0,30.21,SW,221,0.0,0.0,75,0.00,,,0.00,221,weatherlink.com 1.10,2013-03-07 15:05:00,
2013-03-07 10:20:00,32.1,25.0,30.21,South,175,0.0,0.0,74,0.00,,,0.00,209,weatherlink.com 1.10,2013-03-07 15:20:00,
2013-03-07 10:35:00,32.5,25.0,30.20,SSE,151,0.0,0.0,74,0.00,,,0.00,236,weatherlink.com 1.10,2013-03-07 15:35:00,
2013-03-07 10:50:00,32.6,25.0,30.20,SSW,202,0.0,0.0,73,0.00,,,0.00,239,weatherlink.com 1.10,2013-03-07 15:50:00,
2013-03-07 11:05:00,32.6,25.0,30.20,SW,214,0.0,0.0,73,0.00,,,0.00,167,weatherlink.com 1.10,2013-03-07 16:05:00,
2013-03-07 11:20:00,32.4,25.0,30.20,SW,218,0.0,0.0,73,0.00,,,0.00,158,weatherlink.com 1.10,2013-03-07 16:20:00,
2013-03-07 11:35:00,32.3,24.0,30.20,South,175,0.0,0.0,72,0.00,,,0.00,172,weatherlink.com 1.10,2013-03-07 16:35:00,
2013-03-07 11:50:00,31.9,23.0,30.20,SW,227,0.0,0.0,71,0.00,,,0.00,179,weatherlink.com 1.10,2013-03-07 16:50:00,
2013-03-07 12:05:00,32.2,24.0,30.20,SE,138,0.0,0.0,71,0.00,,,0.00,209,weatherlink.com 1.10,2013-03-07 17:05:00,
2013-03-07 12:20:00,32.0,23.0,30.20,SSW,199,0.0,0.0,70,0.00,,,0.00,202,weatherlink.com 1.10,2013-03-07 17:20:00,
2013-03-07 12:35:00,32.1,23.0,30.20,SSE,162,0.0,0.0,70,0.00,,,0.00,193,weatherlink.com 1.10,2013-03-07 17:35:00,
2013-03-07 12:50:00,31.9,23.0,30.20,SSE,165,0.0,0.0,70,0.00,,,0.00,167,weatherlink.com 1.10,2013-03-07 17:50:00,
2013-03-07 13:05:00,32.0,23.0,30.19,East,84,0.0,0.0,70,0.00,,,0.00,167,weatherlink.com 1.10,2013-03-07 18:05:00,
2013-03-07 13:21:00,32.0,23.0,30.20,South,178,0.0,0.0,69,0.00,,,0.00,156,weatherlink.com 1.10,2013-03-07 18:21:00,
2013-03-07 13:35:00,31.9,23.0,30.20,SSE,168,0.0,0.0,69,0.00,,,0.00,155,weatherlink.com 1.10,2013-03-07 18:35:00,
2013-03-07 13:50:00,31.8,23.0,30.20,SSE,166,0.0,0.0,69,0.00,,,0.00,128,weatherlink.com 1.10,2013-03-07 18:50:00,
2013-03-07 14:06:00,31.7,23.0,30.20,SSE,155,0.0,0.0,70,0.00,,,0.00,114,weatherlink.com 1.10,2013-03-07 19:06:00,
2013-03-07 14:21:00,31.4,24.0,30.20,SSE,164,0.0,0.0,73,0.00,,,0.00,109,weatherlink.com 1.10,2013-03-07 19:21:00,
2013-03-07 14:36:00,31.4,24.0,30.20,SW,221,0.0,0.0,73,0.00,,,0.00,142,weatherlink.com 1.10,2013-03-07 19:36:00,
2013-03-07 14:52:00,31.4,24.0,30.21,SSE,147,0.0,0.0,74,0.00,,,0.00,153,weatherlink.com 1.10,2013-03-07 19:52:00,
2013-03-07 15:06:00,31.5,24.0,30.21,South,174,0.0,0.0,73,0.00,,,0.00,148,weatherlink.com 1.10,2013-03-07 20:06:00,
2013-03-07 15:21:00,31.5,24.0,30.21,East,101,0.0,0.0,73,0.00,,,0.00,116,weatherlink.com 1.10,2013-03-07 20:21:00,
2013-03-07 15:36:00,31.5,24.0,30.21,SSW,192,0.0,0.0,73,0.00,,,0.00,95,weatherlink.com 1.10,2013-03-07 20:36:00,
2013-03-07 15:51:00,31.2,23.0,30.22,SW,228,0.0,0.0,73,0.00,,,0.00,102,weatherlink.com 1.10,2013-03-07 20:51:00,
2013-03-07 16:06:00,31.1,23.0,30.22,SSW,206,0.0,0.0,72,0.00,,,0.00,90,weatherlink.com 1.10,2013-03-07 21:06:00,
2013-03-07 16:21:00,30.8,23.0,30.22,SSE,162,0.0,0.0,72,0.00,,,0.00,95,weatherlink.com 1.10,2013-03-07 21:21:00,
2013-03-07 16:36:00,30.7,23.0,30.22,SSW,207,0.0,0.0,73,0.00,,,0.00,65,weatherlink.com 1.10,2013-03-07 21:36:00,
2013-03-07 16:51:00,30.6,23.0,30.22,ESE,115,0.0,0.0,74,0.00,,,0.00,76,weatherlink.com 1.10,2013-03-07 21:51:00,
2013-03-07 17:06:00,30.2,23.0,30.23,SW,232,0.0,0.0,75,0.00,,,0.00,47,weatherlink.com 1.10,2013-03-07 22:06:00,
2013-03-07 17:21:00,30.1,23.0,30.23,SSW,205,0.0,0.0,76,0.00,,,0.00,21,weatherlink.com 1.10,2013-03-07 22:21:00,
2013-03-07 17:36:00,29.9,24.0,30.24,SSW,202,0.0,0.0,77,0.00,,,0.00,9,weatherlink.com 1.10,2013-03-07 22:36:00,
2013-03-07 17:51:00,29.7,23.0,30.24,South,188,0.0,0.0,77,0.00,,,0.00,0,weatherlink.com 1.10,2013-03-07 22:51:00,
2013-03-07 18:06:00,29.7,24.0,30.24,SSW,200,0.0,0.0,78,0.00,,,0.00,0,weatherlink.com 1.10,2013-03-07 23:06:00,
2013-03-07 18:21:00,29.7,24.0,30.25,SSW,194,0.0,0.0,78,0.00,,,0.00,0,weatherlink.com 1.10,2013-03-07 23:21:00,
2013-03-07 18:36:00,29.6,24.0,30.25,SW,231,0.0,0.0,78,0.00,,,0.00,0,weatherlink.com 1.10,2013-03-07 23:36:00,
2013-03-07 18:51:00,29.6,23.0,30.25,South,169,0.0,0.0,77,0.00,,,0.00,0,weatherlink.com 1.10,2013-03-07 23:51:00,
2013-03-07 19:06:00,29.5,23.0,30.25,SSE,168,0.0,0.0,78,0.00,,,0.00,0,weatherlink.com 1.10,2013-03-08 00:06:00,
2013-03-07 19:36:00,28.8,24.0,30.25,South,184,0.0,0.0,82,0.00,,,0.00,0,weatherlink.com 1.10,2013-03-08 00:36:00,
2013-03-07 19:51:00,28.4,24.0,30.25,SE,127,0.0,0.0,84,0.00,,,0.00,0,weatherlink.com 1.10,2013-03-08 00:51:00,
2013-03-07 20:06:00,27.8,24.0,30.25,SSE,148,0.0,0.0,87,0.00,,,0.00,0,weatherlink.com 1.10,2013-03-08 01:06:00,
2013-03-07 20:21:00,27.6,25.0,30.25,SSW,209,0.0,0.0,88,0.00,,,0.00,0,weatherlink.com 1.10,2013-03-08 01:21:00,
2013-03-07 20:36:00,27.6,25.0,30.25,South,169,0.0,0.0,89,0.00,,,0.00,0,weatherlink.com 1.10,2013-03-08 01:36:00,
2013-03-07 20:51:00,27.5,25.0,30.25,SSE,160,0.0,0.0,90,0.00,,,0.00,0,weatherlink.com 1.10,2013-03-08 01:51:00,
2013-03-07 21:06:00,27.5,25.0,30.25,SE,131,0.0,0.0,90,0.01,,,0.01,0,weatherlink.com 1.10,2013-03-08 02:06:00,
2013-03-07 21:21:00,27.4,25.0,30.24,SW,217,0.0,0.0,90,0.01,,,0.01,0,weatherlink.com 1.10,2013-03-08 02:21:00,
2013-03-07 21:36:00,27.4,25.0,30.24,South,176,0.0,0.0,91,0.01,,,0.01,0,weatherlink.com 1.10,2013-03-08 02:36:00,
2013-03-07 21:51:00,27.3,25.0,30.24,SE,146,0.0,0.0,91,0.01,,,0.01,0,weatherlink.com 1.10,2013-03-08 02:51:00,
2013-03-07 22:07:00,27.3,25.0,30.23,South,184,0.0,0.0,91,0.00,,,0.01,0,weatherlink.com 1.10,2013-03-08 03:07:00,
2013-03-07 22:21:00,27.4,25.0,30.23,South,182,0.0,0.0,90,0.00,,,0.01,0,weatherlink.com 1.10,2013-03-08 03:21:00,
2013-03-07 22:36:00,27.4,25.0,30.23,SE,125,0.0,0.0,90,0.00,,,0.01,0,weatherlink.com 1.10,2013-03-08 03:36:00,
2013-03-07 22:51:00,27.4,25.0,30.23,ESE,105,0.0,0.0,90,0.00,,,0.01,0,weatherlink.com 1.10,2013-03-08 03:51:00,
2013-03-07 23:06:00,27.4,25.0,30.22,ESE,118,0.0,0.0,90,0.00,,,0.01,0,weatherlink.com 1.10,2013-03-08 04:06:00,
2013-03-07 23:21:00,27.4,25.0,30.22,ESE,120,0.0,0.0,90,0.00,,,0.01,0,weatherlink.com 1.10,2013-03-08 04:21:00,
2013-03-07 23:35:00,27.5,25.0,30.21,East,100,0.0,0.0,89,0.00,,,0.01,0,weatherlink.com 1.10,2013-03-08 04:35:00,
2013-03-07 23:51:00,27.6,25.0,30.21,ESE,110,0.0,0.0,88,0.00,,,0.01,0,weatherlink.com 1.10,2013-03-08 04:51:00,